ONEWEB-0090, 45427

Orbit data source: Space-Track

ONEWEB-0090, 45427 is a payload satellite owned by One Web (UK) in LEO that was launched on Sat, 21 Mar 2020 UTC via a SOYUZ-2-1B launch vehicle from the Tyuratam Missile And Space Complex (TTMTR). Payloads include a variety of satellites, spacecraft, and rockets equipped with specific instruments for various scientific and technological missions. These include communications satellites like Starlink; space stations such as the ISS; scientific satellites like the Hubble; Earth observation satellites from companies like Planet Labs, Umbra, and HawkEye 360; GPS; miniature CubeSats for education and research; and military/defense satellites.

Loading next visibility...
ONEWEB-0090 details
Identifier
45427, 2020-020D
Orbit
LEO
Last TLE update16 hours ago
Origin
Flag of UKOne Web (UK)
ManufacturerOne Web
MissionOperational Commercial Communications
Bus & MotorARROW, Unknown motor
Mass148 kg wet, ~140 kg dry
Launch date (UTC)
2020-03-21 (5 years ago)
Launch vehicle
SOYUZ-2-1B
Launch site
Tyuratam Missile And Space Complex (TTMTR)
Object type
Payload
Rocket body
Debris
Shape & HBRTrap Box + 2 Pan, 5 m
Radar Cross Section2.957 m², Large (>1 m²)

Expand to show TLE details & history

TLE from 16 hours ago
0 ONEWEB-0090
1 45427U 20020D   24355.82722892  .00000543  00000-0  14949-2 0  9996
2 45427  87.8904 129.3332 0001518 101.8623 258.2675 13.11416151231453
Epoch: 2024-12-20T19:51Z
Definitive object data (Epoch: 2024-12-20T19:51:12.578Z)
Latitude-0.00006°
Longitude101.64363°
Altitude1,220.81 km
Speed7.244 km/s
True Right ascension08h 37m 19s
True Declination0° 00' 00"
Sunlit
Object was in full shadow at TLE epoch
Visualization TLE readout
Latitude-44.39042°
Longitude99.45292°
Altitude1,235.745 km
Speed7.236 km/s
Apparent Right ascension04h 21m 41s
Apparent Declination-69° 09' 17"
Sunlit
Object is in daylight
Visualization observer readout
Local Sidereal Time11:08:14
Azimuth207.458° SW
Elevation-40.899°
Doppler factor1
Orbital elements
Apogee altitude1,215.957 km
Perigee altitude1,213.651 km
Semi-major axis7,592.941 km
Eccentricity0.0001518
Inclination87.8904°
RAAN129.3332°
Arg. of periapsis101.8623°
True anomaly258.25047°
Mean anomaly258.2675°
Eccentric anomaly258.25898°
Mean motion3.28041 °/min
BSTAR0.0014949
Orbital period109.74 mins
Loading maneuver chart data...
Loading historical data...
Loading historical data...
Loading historical data...
Loading historical data...
Loading historical data...
Loading historical data...
Loading historical data...

ONEWEB-0090 Visibility forecast

Observer location: undefined°, undefined

Span
Click to sort rows by Start time (UTC) header in descending order
Start Az.
Max El. time (UTC)
Max El. Az.
Max El.
End time (UTC)
End Az.
12 mins2024-12-21 20:15:29.763Z18.272° NNE2024-12-21 20:21:29.763Z74.252° E28.429°2024-12-21 20:27:29.763Z138.121° SSE
12 mins2024-12-21 22:06:29.763Z341.371° N2024-12-21 22:11:29.763Z285.526° WNW34.723°2024-12-21 22:18:29.763Z209.747° SW
12 mins2024-12-22 08:35:29.763Z139.428° SSE2024-12-22 08:41:29.763Z71.953° E30.743°2024-12-22 08:47:29.763Z17.187° NNE
12 mins2024-12-22 10:25:29.763Z216.841° SW2024-12-22 10:30:29.763Z272.684° WNW32.38°2024-12-22 10:37:29.763Z345.534° N
|